This is the latest recevied weather packets stored in our database for station/object K7NDG. If no packets are shown the sender has not sent any weather packets the latest 10 day(s).
| Time | Temp. | Humidity | Pressure | Rain* | Wind** | Luminosity | Snow |
|---|---|---|---|---|---|---|---|
| 1777914015 | 15° C | 79% | 1013.5 hPa | 0 mm | - | 157 W/m² | - |
| 1777913710 | 15° C | 78% | 1013.5 hPa | 0 mm | - | 148 W/m² | - |
| 1777913407 | 15° C | 79% | 1013.4 hPa | 0 mm | - | 130 W/m² | - |
| 1777913104 | 15° C | 80% | 1013.2 hPa | 0 mm | - | 121 W/m² | - |
| 1777912800 | 15° C | 80% | 1013.3 hPa | 0 mm | - | 110 W/m² | - |
| 1777912496 | 15° C | 81% | 1013.2 hPa | 0 mm | - | 99 W/m² | - |
| 1777912192 | 14.44° C | 81% | 1013.4 hPa | 0 mm | - | 97 W/m² | - |
| 1777911889 | 14.44° C | 81% | 1013.2 hPa | 0 mm | - | 88 W/m² | - |
| 1777911585 | 14.44° C | 82% | 1013.2 hPa | 0 mm | - | 100 W/m² | - |
| 1777911281 | 14.44° C | 82% | 1013.1 hPa | 0 mm | - | 97 W/m² | - |
| 1777910979 | 13.89° C | 82% | 1013 hPa | 0 mm | - | 83 W/m² | - |
| 1777910677 | 13.89° C | 82% | 1013.2 hPa | 0 mm | - | 117 W/m² | - |
| 1777910373 | 13.89° C | 83% | 1013.2 hPa | 0 mm | - | 94 W/m² | - |
| 1777910069 | 13.89° C | 83% | 1013.1 hPa | 0 mm | - | 87 W/m² | - |
| 1777909767 | 13.89° C | 83% | 1013.1 hPa | 0 mm | - | 81 W/m² | - |
| 1777909464 | 13.89° C | 83% | 1013.2 hPa | 0 mm | - | 86 W/m² | - |
| 1777909162 | 13.89° C | 83% | 1013.1 hPa | 0 mm | - | 79 W/m² | - |
| 1777908859 | 13.33° C | 83% | 1012.7 hPa | 0 mm | - | 76 W/m² | - |
| 1777908556 | 13.33° C | 84% | 1013 hPa | 0 mm | - | 66 W/m² | - |
| 1777908253 | 13.33° C | 84% | 1012.9 hPa | 0 mm | - | 54 W/m² | - |
| 1777907949 | 13.33° C | 85% | 1012.8 hPa | 0 mm | - | 50 W/m² | - |
| 1777907644 | 13.33° C | 85% | 1013.1 hPa | 0 mm | - | 48 W/m² | - |
| 1777907341 | 13.33° C | 85% | 1012.8 hPa | 0 mm | - | 49 W/m² | - |
| 1777907037 | 13.33° C | 85% | 1012.7 hPa | 0 mm | - | 40 W/m² | - |
| 1777906735 | 13.33° C | 85% | 1012.7 hPa | 0 mm | - | 39 W/m² | - |
* Rain latest hour (hover to see other rain measurements)
** Current wind speed in m/s (hover to see current wind gust speed)